Total_Precipitation_Accumulation
0.00 0.01 0.04 0.09 0.23 0.51 0.68 0.48 0.33 0.13 0.09 0.13 0.18 0.12 0.08 0.11 0.16 0.21 0.05 0.00 0.00 0.00 0.00 0.01 0.01 0.01 0.01 0.01 0.03 0.04 0.05 0.06 0.06 0.04 0.02 0.02 0.02 0.01 0.01 0.01 0.01 0.01 0.02 0.02 0.02 0.01 0.01 0.01 0.01
0.00 0.01 0.04 0.11 0.27 0.60 0.67 0.43 0.20 0.12 0.13 0.21 0.23 0.13 0.04 0.02 0.01 0.01 0.02 0.00 0.00 0.00 0.00 0.01 0.01 0.01 0.01 0.01 0.02 0.04 0.05 0.05 0.05 0.03 0.02 0.02 0.01 0.01 0.01 0.01 0.02 0.02 0.03 0.03 0.02 0.02 0.01 0.01 0.01
0.00 0.01 0.03 0.09 0.25 0.39 0.38 0.23 0.17 0.15 0.18 0.26 0.24 0.14 0.06 0.03 0.01 0.01 0.01 0.00 0.00 0.00 0.00 0.01 0.01 0.01 0.01 0.01 0.02 0.03 0.05 0.05 0.04 0.02 0.02 0.02 0.02 0.01 0.02 0.02 0.03 0.03 0.04 0.04 0.04 0.03 0.01 0.01 0.01
0.00 0.01 0.02 0.06 0.16 0.26 0.21 0.17 0.16 0.14 0.24 0.36 0.38 0.17 0.06 0.03 0.02 0.01 0.01 0.00 0.00 0.00 0.00 0.01 0.01 0.01 0.01 0.01 0.02 0.03 0.04 0.04 0.03 0.02 0.02 0.02 0.02 0.02 0.03 0.03 0.04 0.04 0.06 0.05 0.04 0.03 0.02 0.01 0.01
0.00 0.01 0.02 0.06 0.14 0.19 0.18 0.15 0.15 0.17 0.21 0.39 0.43 0.26 0.10 0.07 0.02 0.01 0.01 0.00 0.00 0.00 0.01 0.01 0.02 0.02 0.01 0.01 0.02 0.02 0.03 0.03 0.03 0.02 0.02 0.02 0.03 0.03 0.04 0.04 0.04 0.05 0.06 0.06 0.05 0.04 0.03 0.02 0.01
0.00 0.01 0.01 0.04 0.07 0.08 0.10 0.11 0.17 0.21 0.31 0.40 0.35 0.26 0.15 0.10 0.08 0.03 0.01 0.01 0.00 0.00 0.01 0.02 0.02 0.03 0.02 0.02 0.02 0.03 0.03 0.04 0.03 0.03 0.03 0.03 0.04 0.05 0.06 0.06 0.05 0.06 0.07 0.08 0.08 0.06 0.05 0.04 0.03
0.00 0.00 0.00 0.02 0.03 0.05 0.06 0.09 0.18 0.24 0.42 0.47 0.51 0.36 0.28 0.21 0.13 0.08 0.05 0.02 0.01 0.01 0.01 0.02 0.03 0.04 0.04 0.04 0.04 0.04 0.04 0.05 0.05 0.05 0.05 0.05 0.05 0.06 0.07 0.08 0.09 0.10 0.12 0.12 0.11 0.10 0.09 0.07 0.07
0.00 0.00 0.00 0.00 0.01 0.04 0.06 0.08 0.15 0.24 0.39 0.42 0.54 0.56 0.52 0.35 0.19 0.13 0.10 0.07 0.05 0.03 0.02 0.03 0.04 0.07 0.07 0.07 0.07 0.06 0.07 0.07 0.07 0.06 0.08 0.09 0.09 0.10 0.13 0.13 0.13 0.15 0.18 0.19 0.18 0.18 0.19 0.18 0.15
0.00 0.00 0.00 0.00 0.01 0.02 0.04 0.09 0.15 0.25 0.32 0.30 0.42 0.56 0.57 0.34 0.20 0.18 0.17 0.15 0.11 0.07 0.05 0.04 0.06 0.08 0.09 0.10 0.11 0.12 0.13 0.13 0.12 0.14 0.15 0.15 0.19 0.24 0.30 0.28 0.32 0.33 0.34 0.34 0.35 0.36 0.39 0.38 0.32
0.00 0.00 0.00 0.00 0.00 0.02 0.05 0.10 0.15 0.21 0.41 0.62 0.79 0.72 0.55 0.40 0.28 0.25 0.22 0.21 0.22 0.10 0.07 0.08 0.12 0.11 0.14 0.15 0.22 0.30 0.32 0.38 0.32 0.36 0.38 0.40 0.44 0.38 0.32 0.42 0.57 0.65 0.75 0.74 0.74 0.83 0.81 0.63 0.44
0.00 0.00 0.00 0.00 0.00 0.01 0.04 0.09 0.09 0.19 0.58 1.08 1.23 0.94 0.55 0.46 0.39 0.33 0.27 0.29 0.22 0.13 0.10 0.13 0.17 0.17 0.20 0.22 0.26 0.37 0.50 0.69 0.67 0.65 0.75 0.76 0.73 0.59 0.48 0.58 0.78 0.89 1.04 1.02 1.21 1.43 1.15 1.02 0.94
0.00 0.00 0.00 0.00 0.00 0.01 0.03 0.09 0.12 0.24 0.63 1.02 1.02 0.72 0.35 0.31 0.33 0.39 0.41 0.38 0.30 0.25 0.23 0.26 0.32 0.34 0.36 0.42 0.45 0.49 0.55 0.66 0.72 0.77 0.84 1.01 1.00 0.93 0.87 0.85 0.90 0.99 1.10 1.30 1.45 1.56 1.62 1.62 1.38
0.00 0.00 0.00 0.00 0.00 0.02 0.04 0.08 0.17 0.30 0.40 0.46 0.54 0.47 0.29 0.29 0.41 0.53 0.54 0.49 0.39 0.43 0.52 0.60 0.62 0.60 0.63 0.70 0.69 0.59 0.59 0.61 0.65 0.82 0.94 1.14 1.23 1.25 1.29 1.23 1.20 1.10 1.26 1.52 1.73 1.68 1.83 1.94 1.77
0.00 0.00 0.00 0.00 0.00 0.01 0.03 0.08 0.20 0.30 0.32 0.35 0.43 0.44 0.43 0.52 0.72 0.75 0.67 0.59 0.56 0.69 0.89 0.93 0.93 0.95 0.95 0.96 0.93 0.85 0.77 0.77 0.80 0.96 1.09 1.37 1.47 1.51 1.57 1.48 1.38 1.16 1.25 1.49 1.72 1.76 1.91 1.88 1.87
0.00 0.00 0.02 0.02 0.02 0.05 0.05 0.11 0.31 0.48 0.37 0.33 0.47 0.48 0.45 0.64 0.69 0.79 0.84 0.77 0.81 0.95 1.09 1.16 1.25 1.37 1.47 1.44 1.26 1.10 0.96 0.95 1.04 1.24 1.44 1.65 1.79 1.83 1.85 1.68 1.44 1.32 1.51 1.62 1.62 1.67 2.03 1.86 1.72
0.00 0.01 0.04 0.05 0.03 0.05 0.07 0.33 0.51 0.52 0.43 0.41 0.55 0.50 0.41 0.51 0.58 0.66 0.70 0.82 1.03 1.18 1.32 1.47 1.65 1.87 1.97 1.83 1.63 1.52 1.45 1.47 1.44 1.50 1.66 1.71 1.78 1.86 1.99 1.69 1.39 1.55 1.74 1.71 1.64 1.68 1.89 1.89 1.94
0.01 0.02 0.05 0.08 0.07 0.06 0.11 0.48 0.62 0.41 0.43 0.51 0.52 0.50 0.45 0.46 0.55 0.64 0.78 1.07 1.37 1.60 1.81 2.04 2.32 2.44 2.27 2.07 1.90 1.82 1.73 1.62 1.45 1.29 1.25 1.22 1.23 1.29 1.34 1.04 0.98 1.25 1.34 1.22 1.19 1.44 1.59 1.60 1.73
0.02 0.05 0.10 0.20 0.15 0.09 0.14 0.41 0.53 0.44 0.43 0.57 0.61 0.56 0.54 0.55 0.63 0.73 0.97 1.24 1.55 1.93 2.43 2.82 2.85 2.51 2.17 1.91 1.70 1.60 1.46 1.35 1.22 1.03 0.93 0.84 0.82 0.85 0.89 0.72 0.73 0.99 1.05 0.97 1.09 1.19 1.23 1.17 1.25
0.02 0.04 0.11 0.17 0.11 0.10 0.21 0.39 0.45 0.46 0.54 0.68 0.79 0.68 0.59 0.60 0.72 0.88 1.16 1.46 1.83 2.46 3.12 3.29 2.85 2.40 1.99 1.71 1.45 1.20 0.99 0.93 0.88 0.74 0.69 0.69 0.71 0.74 0.83 0.72 0.80 0.95 0.95 0.92 0.98 1.04 0.96 0.81 0.98
0.05 0.07 0.12 0.15 0.10 0.12 0.18 0.37 0.55 0.61 0.74 0.75 0.79 0.76 0.65 0.75 0.98 1.21 1.54 1.72 1.96 2.35 2.77 2.73 2.27 1.82 1.34 1.04 0.93 0.82 0.70 0.61 0.51 0.48 0.52 0.49 0.55 0.63 0.72 0.66 0.58 0.63 0.65 0.60 0.65 0.82 0.84 0.74 0.87
0.07 0.08 0.12 0.14 0.07 0.11 0.18 0.42 0.68 0.75 0.64 0.54 0.46 0.52 0.49 0.58 0.93 1.38 1.84 2.03 2.11 2.10 1.97 1.80 1.37 0.89 0.66 0.50 0.48 0.43 0.41 0.41 0.33 0.30 0.33 0.32 0.35 0.39 0.47 0.50 0.50 0.55 0.62 0.61 0.61 0.65 0.69 0.63 0.64
0.07 0.05 0.04 0.04 0.06 0.19 0.26 0.66 0.85 0.73 0.59 0.50 0.38 0.34 0.34 0.46 0.83 1.39 1.68 1.68 1.66 1.53 1.18 0.89 0.70 0.46 0.33 0.30 0.33 0.34 0.31 0.31 0.27 0.24 0.25 0.24 0.24 0.27 0.30 0.33 0.34 0.41 0.52 0.59 0.54 0.55 0.58 0.57 0.50
0.05 0.04 0.04 0.06 0.09 0.20 0.34 0.60 0.83 0.68 0.62 0.47 0.34 0.29 0.32 0.40 0.58 0.82 0.90 0.95 0.95 0.84 0.68 0.55 0.49 0.40 0.38 0.37 0.39 0.40 0.29 0.24 0.22 0.21 0.20 0.21 0.24 0.26 0.27 0.28 0.28 0.31 0.35 0.39 0.42 0.49 0.52 0.54 0.50
0.03 0.05 0.10 0.20 0.27 0.49 0.47 0.55 0.81 0.73 0.56 0.34 0.24 0.25 0.22 0.27 0.38 0.50 0.48 0.45 0.43 0.35 0.36 0.39 0.49 0.53 0.46 0.36 0.32 0.32 0.28 0.24 0.21 0.18 0.19 0.20 0.22 0.26 0.29 0.30 0.30 0.32 0.33 0.34 0.36 0.40 0.44 0.50 0.54
0.05 0.08 0.23 0.50 0.79 0.80 0.44 0.48 0.75 0.51 0.32 0.22 0.16 0.15 0.20 0.31 0.37 0.41 0.44 0.42 0.32 0.25 0.27 0.29 0.29 0.32 0.32 0.29 0.27 0.27 0.27 0.25 0.23 0.20 0.16 0.17 0.19 0.23 0.27 0.32 0.34 0.37 0.37 0.37 0.38 0.38 0.41 0.47 0.55
0.06 0.08 0.15 0.27 0.31 0.36 0.36 0.71 0.81 0.36 0.24 0.15 0.10 0.10 0.15 0.22 0.26 0.27 0.27 0.25 0.19 0.15 0.11 0.10 0.12 0.13 0.14 0.14 0.16 0.18 0.22 0.20 0.20 0.23 0.19 0.17 0.20 0.24 0.28 0.29 0.30 0.34 0.36 0.38 0.40 0.37 0.36 0.46 0.55
0.05 0.05 0.06 0.06 0.11 0.23 0.41 0.60 0.49 0.27 0.18 0.10 0.06 0.06 0.08 0.09 0.10 0.11 0.09 0.07 0.07 0.07 0.05 0.05 0.05 0.06 0.06 0.07 0.09 0.12 0.16 0.18 0.18 0.20 0.19 0.19 0.25 0.26 0.28 0.29 0.30 0.32 0.35 0.38 0.40 0.41 0.45 0.52 0.56
0.05 0.05 0.04 0.04 0.10 0.18 0.32 0.54 0.54 0.29 0.18 0.08 0.04 0.04 0.04 0.03 0.03 0.04 0.04 0.03 0.03 0.02 0.02 0.02 0.03 0.03 0.03 0.04 0.05 0.07 0.09 0.13 0.15 0.15 0.18 0.21 0.21 0.22 0.27 0.32 0.34 0.34 0.35 0.43 0.50 0.49 0.50 0.58 0.68
0.04 0.04 0.04 0.04 0.05 0.09 0.20 0.32 0.24 0.13 0.06 0.03 0.02 0.01 0.01 0.01 0.01 0.01 0.02 0.01 0.01 0.01 0.01 0.02 0.02 0.02 0.02 0.02 0.03 0.04 0.06 0.08 0.11 0.14 0.16 0.19 0.19 0.21 0.24 0.30 0.34 0.35 0.42 0.60 0.78 0.76 0.68 0.74 0.83
0.03 0.03 0.03 0.03 0.04 0.06 0.10 0.14 0.10 0.07 0.03 0.02 0.01 0.00 0.00 0.00 0.00 0.00 0.00 0.00 0.01 0.01 0.01 0.01 0.02 0.02 0.02 0.02 0.02 0.03 0.05 0.06 0.07 0.09 0.13 0.16 0.19 0.18 0.18 0.20 0.25 0.28 0.34 0.50 0.81 0.99 1.01 0.98 0.91